Regional Weather Roundup
Issued by NWS Cleveland, OH

Home | Current Version | Previous Version | Graphics & Text | Print | Product List | Glossary On
Versions: 1 2 3 4 5 6 7 8 9 10 11 12 13 14 15 16 17 18 19 20 21 22 23 24 25 26 27 28 29 30 31 32 33 34 35 36 37 38 39 40 41 42 43 44 45 46 47 48 49 50
000
ASUS41 KCLE 022200
RWRCLE
OHIO REGIONAL WEATHER ROUNDUP
NATIONAL WEATHER SERVICE WILMINGTON, OH
500 PM EST MON MAR 02 2015

NOTE: "FAIR" INDICATES FEW OR NO CLOUDS BELOW 12,000 FEET WITH NO
SIGNIFICANT WEATHER AND/OR OBSTRUCTIONS TO VISIBILITY.

OHZ001>008-015>018-024>027-034-035-043-044-022300-
   NORTHWEST OHIO

CITY           SKY/WX    TMP DP  RH WIND       PRES   REMARKS
DEFIANCE       MOSUNNY   29  14  53 SW5       30.44F WCI  24
FINDLAY        SUNNY     24  15  68 W6        30.43F WCI  17
TOLEDO EXPRESS SUNNY     26  14  60 W10       30.44F WCI  16
TOLEDO EXEC    SUNNY     27  15  61 SW10      30.45F WCI  17
LIMA           SUNNY     27  13  55 NW3       30.43F
$$

OHZ009>014-019>023-028>033-038-089-022300-
   NORTHEAST OHIO

CITY           SKY/WX    TMP DP  RH WIND       PRES   REMARKS
CLE-HOPKINS    MOSUNNY   28  11  48 W9        30.46F WCI  19
CLE-LAKEFRONT  SUNNY     23  14  68 W9        30.45F WCI  13
CUY CO. ARPT   MOSUNNY   27  18  69 W16       30.44F WCI  14
LORAIN-ELYRIA  SUNNY     25  11  55 W8        30.44F WCI  16
ASHTABULA      SUNNY     24   8  50 NW7       30.43S WCI  16
AKRON-CANTON   PTSUNNY   27  10  49 W8        30.41F WCI  19
WOOSTER        NOT AVBL
MANSFIELD      SUNNY     24  11  57 NW7       30.41F WCI  16
YOUNGSTOWN     MOSUNNY   27   8  44 NW10      30.39S WCI  17
$$

OHZ042-051>053-060>062-070>072-077>081-022300-
  SOUTHWEST OHIO

CITY           SKY/WX    TMP DP  RH WIND       PRES   REMARKS
CINC-COVINGTON PTSUNNY   33  14  45 E6        30.42F WCI  28
CINC-LUNKEN    MOSUNNY   34  14  43 VRB3      30.45F
HAMILTON       PTSUNNY   33  14  45 NE5       30.45F WCI  29
DAYTON         NOT AVBL
WRIGHT-PAT AFB MOSUNNY   29  12  50 N7        30.43F WCI  21
DAYTON GENERAL MOSUNNY   31  14  49 NE6       30.41F WCI  25
WILMINGTON     FAIR      25  12  58 E6        30.42F WCI  18
$$

OHZ036-037-039>041-045>050-054>059-063>069-073>076-082>088-022300-
  CENTRAL AND SOUTHEAST OHIO

CITY           SKY/WX    TMP DP  RH WIND       PRES   REMARKS
COLUMBUS       PTSUNNY   30  10  43 NW6       30.44S WCI  24
OSU AIRPORT    FAIR      27  10  49 N5        30.43F WCI  22
BOLTON FIELD   SUNNY     28  14  54 NW6       30.44F WCI  22
RICKENBACK AFB NOT AVBL
NEWARK         SUNNY     30  12  47 NW3       30.42F
MARION         SUNNY     25  11  55 N5        30.43F WCI  19
LANCASTER      MOSUNNY   30  17  58 N3        30.44F
ZANESVILLE     SUNNY     30  11  45 NW7       30.41F WCI  23
NEW PHILLY     SUNNY     31  10  41 NW7       30.43F WCI  24
$$



USA.gov is the U.S. government's official web portal to all federal, state and local government web resources and services.